GW3653 Weather Reports


Display with metric or nautical units.
time (UTC)temp
F
wind
direction
speed
MPH
gust
MPH
rain 1hr
in
rain 24hr
in
rain mn
in
humidity
%
barometer
mb
20260831005517 62 248 1.0 4.0 0.00 0.01 0.01 86 1016.5
20260831004517 62 270 1.0 6.0 0.00 0.01 0.01 87 1016.6
20260831003518 61 248 1.0 8.0 0.00 0.01 0.01 89 1016.6
20260831002517 60 0.0 1.0 0.00 0.01 0.01 91 1016.6
20260831001538 59 0.0 1.0 0.00 0.01 0.01 92 1016.5
20260831000518 59 0.0 0.0 0.00 0.01 0.01 93 1016.7
20260830235537 58 0.0 0.0 0.00 0.01 0.01 93 1016.7
20260830234517 58 0.0 1.0 0.00 0.01 0.01 93 1016.6
20260830233519 57 0.0 0.0 0.00 0.01 0.01 93 1016.5
20260830232517 57 0.0 1.0 0.00 0.01 0.01 93 1016.5
20260830231517 57 0.0 0.0 0.00 0.01 0.01 93 1016.4
20260830230518 57 0.0 0.0 0.00 0.01 0.01 93 1016.4
20260830225537 57 0.0 1.0 0.00 0.01 0.01 93 1016.5
20260830224517 56 0.0 4.0 0.00 0.01 0.01 94 1016.4
20260830223518 55 0.0 2.0 0.00 0.01 0.01 93 1016.3
20260830222517 55 0.0 0.0 0.00 0.01 0.01 93 1016.1
20260830221519 55 0.0 0.0 0.00 0.02 0.01 92 1016.1
20260830220520 56 0.0 0.0 0.01 0.02 0.01 93 1016.2
20260830215519 56 0.0 0.0 0.01 0.02 0.01 93 1016.1
20260830214519 56 0.0 0.0 0.01 0.02 0.01 93 1016.1
20260830213519 55 0.0 0.0 0.01 0.02 0.01 93 1016.1
20260830212519 55 0.0 0.0 0.01 0.02 0.01 92 1016.1
20260830211519 56 0.0 0.0 0.01 0.02 0.01 93 1016.1
20260830210519 56 0.0 0.0 0.00 0.02 0.00 92 1015.9
20260830205519 56 0.0 0.0 0.00 0.02 0.00 92 1015.9
20260830204539 56 0.0 0.0 0.00 0.02 0.00 92 1015.9
20260830203539 56 0.0 0.0 0.00 0.02 0.00 92 1015.8
20260830202518 57 0.0 0.0 0.00 0.02 0.00 92 1016.0
20260830201518 57 0.0 0.0 0.00 0.02 0.00 93 1015.9
20260830200519 58 0.0 0.0 0.00 0.02 0.00 93 1015.7
20260830195519 57 0.0 0.0 0.00 0.02 0.00 93 1015.7
20260830194539 57 0.0 0.0 0.00 0.04 0.00 93 1015.7
20260830193519 57 0.0 0.0 0.00 0.05 0.00 93 1015.7
20260830192519 57 0.0 0.0 0.00 0.05 0.00 93 1015.7
20260830191519 57 0.0 0.0 0.00 0.05 0.00 93 1015.8
20260830190519 57 0.0 0.0 0.00 0.05 0.00 93 1015.9
20260830185518 57 0.0 0.0 0.00 0.05 0.00 93 1016.0
20260830184518 57 0.0 0.0 0.00 0.06 0.00 93 1016.0
20260830183518 57 0.0 0.0 0.00 0.06 0.00 93 1016.3
20260830182518 57 0.0 0.0 0.00 0.08 0.00 93 1016.4
20260830181519 56 0.0 0.0 0.00 0.09 0.00 93 1016.5
20260830180539 56 0.0 0.0 0.00 0.11 0.00 93 1016.5
20260830175518 56 0.0 0.0 0.00 0.11 0.00 93 1016.6
20260830174518 56 0.0 0.0 0.00 0.12 0.00 93 1016.8
20260830173519 56 0.0 0.0 0.00 0.12 0.00 93 1016.9
20260830172518 56 0.0 0.0 0.00 0.12 0.00 93 1017.1
20260830171518 56 0.0 0.0 0.00 0.12 0.00 93 1017.1
20260830170518 55 0.0 0.0 0.00 0.12 0.00 93 1017.2
20260830165518 55 0.0 0.0 0.00 0.12 0.00 93 1017.3
20260830164518 55 0.0 0.0 0.00 0.12 0.00 93 1017.4
20260830163518 55 0.0 0.0 0.00 0.12 0.00 92 1017.6
20260830162518 55 0.0 0.0 0.00 0.12 0.00 92 1017.7
20260830161538 56 0.0 0.0 0.00 0.12 0.00 92 1017.8
20260830160518 57 0.0 0.0 0.00 0.12 0.00 93 1018.1
20260830155518 57 0.0 0.0 0.00 0.12 0.12 93 1018.1
20260830154518 57 0.0 0.0 0.00 0.12 0.12 93 1018.2
20260830153519 57 0.0 0.0 0.00 0.12 0.12 93 1018.4
20260830152518 57 0.0 0.0 0.00 0.12 0.12 93 1018.5
20260830151519 56 0.0 0.0 0.00 0.12 0.12 93 1018.6
20260830150519 56 0.0 0.0 0.00 0.12 0.12 92 1018.7
20260830145518 56 0.0 0.0 0.00 0.12 0.12 92 1018.8
20260830144538 56 0.0 0.0 0.00 0.12 0.12 92 1018.9
20260830143518 56 0.0 0.0 0.00 0.12 0.12 92 1019.0
20260830142519 56 0.0 0.0 0.00 0.12 0.12 92 1019.1
20260830141518 56 0.0 0.0 0.00 0.12 0.12 91 1019.3
20260830140519 57 0.0 0.0 0.00 0.12 0.12 91 1019.3
20260830135518 57 0.0 0.0 0.00 0.12 0.12 91 1019.4
20260830134519 58 0.0 0.0 0.00 0.12 0.12 92 1019.5
20260830133518 58 0.0 0.0 0.00 0.12 0.12 92 1019.5
20260830132518 58 0.0 0.0 0.00 0.12 0.12 91 1019.6
20260830131518 58 0.0 0.0 0.00 0.12 0.12 91 1019.7
20260830130539 59 0.0 0.0 0.00 0.12 0.12 91 1019.6
20260830125518 59 0.0 0.0 0.00 0.12 0.12 91 1019.5
20260830124518 59 0.0 0.0 0.00 0.12 0.12 91 1019.5
20260830123519 59 0.0 0.0 0.00 0.12 0.12 91 1019.6
20260830122518 60 0.0 0.0 0.00 0.12 0.12 91 1019.7
20260830121619 60 0.0 0.0 0.00 0.12 0.12 90 1019.8
20260830120519 60 0.0 0.0 0.00 0.12 0.12 90 1019.9
20260830115558 60 0.0 0.0 0.00 0.12 0.12 89 1020.0
20260830114518 60 0.0 0.0 0.00 0.12 0.12 89 1020.0
20260830113518 61 0.0 0.0 0.00 0.12 0.12 88 1020.1
20260830112518 61 0.0 0.0 0.00 0.12 0.12 88 1019.9
20260830111538 61 0.0 0.0 0.00 0.12 0.12 88 1020.0
20260830110538 62 0.0 0.0 0.00 0.12 0.12 87 1019.9
20260830105518 62 0.0 0.0 0.00 0.12 0.12 87 1019.8
20260830104538 63 0.0 0.0 0.00 0.12 0.12 86 1019.8
20260830103538 63 0.0 0.0 0.00 0.12 0.12 85 1019.7
20260830102518 64 0.0 0.0 0.00 0.12 0.12 85 1019.6
20260830101519 65 0.0 0.0 0.00 0.12 0.12 84 1019.5
20260830100518 65 0.0 0.0 0.00 0.12 0.12 83 1019.4
20260830095518 67 0.0 0.0 0.00 0.12 0.12 81 1019.3
20260830094538 68 0.0 0.0 0.00 0.12 0.12 78 1019.3
20260830093538 71 0.0 1.0 0.00 0.12 0.12 74 1019.2
20260830092518 72 0.0 0.0 0.00 0.12 0.12 71 1019.2
20260830091518 74 0.0 0.0 0.00 0.12 0.12 69 1019.2
20260830090519 74 0.0 0.0 0.00 0.12 0.12 69 1019.2
20260830085518 74 0.0 0.0 0.00 0.12 0.12 69 1019.1
20260830084517 74 0.0 0.0 0.00 0.12 0.12 68 1019.0
20260830083534 74 0.0 0.0 0.00 0.12 0.12 68 1019.0
20260830082518 74 0.0 2.0 0.00 0.12 0.12 68 1019.1
20260830081518 75 0.0 3.0 0.00 0.12 0.12 67 1019.2
20260830080518 75 0.0 2.0 0.00 0.12 0.12 68 1019.3
20260830075518 75 0.0 1.0 0.00 0.12 0.12 68 1019.4
20260830074518 76 0.0 3.0 0.00 0.12 0.12 66 1019.5
20260830073518 76 0.0 1.0 0.00 0.12 0.12 68 1019.5
20260830072517 76 0.0 1.0 0.00 0.12 0.12 68 1019.5
20260830071518 76 0.0 2.0 0.00 0.12 0.12 68 1019.6
20260830070517 75 0.0 1.0 0.00 0.12 0.12 70 1019.6
20260830065517 75 0.0 1.0 0.00 0.12 0.12 70 1019.7
20260830064517 75 0.0 3.0 0.00 0.12 0.12 70 1019.8
20260830063519 74 0.0 5.0 0.00 0.12 0.12 70 1019.9
20260830062518 74 0.0 2.0 0.00 0.12 0.12 71 1019.9
20260830061518 74 0.0 1.0 0.00 0.12 0.12 71 1020.0
20260830060517 74 0.0 1.0 0.00 0.12 0.12 71 1020.0
20260830055537 75 0.0 1.0 0.00 0.12 0.12 70 1020.0
20260830054517 74 0.0 3.0 0.00 0.12 0.12 71 1020.1
20260830053517 74 0.0 1.0 0.00 0.12 0.12 72 1020.4
20260830052517 74 0.0 2.0 0.00 0.12 0.12 71 1020.7
20260830051518 73 0.0 1.0 0.00 0.12 0.12 73 1020.9
20260830050517 73 0.0 6.0 0.00 0.12 0.12 73 1021.1
20260830045537 71 0.0 1.0 0.00 0.12 0.12 75 1021.3
20260830044537 71 0.0 1.0 0.00 0.12 0.12 75 1021.5
20260830043517 71 0.0 1.0 0.00 0.12 0.12 75 1021.7
20260830042517 71 0.0 1.0 0.00 0.12 0.12 78 1022.1
20260830041517 70 0.0 1.0 0.00 0.12 0.12 80 1022.2
20260830040517 69 0.0 1.0 0.00 0.12 0.12 83 1022.4
20260830035517 69 0.0 3.0 0.00 0.12 0.12 85 1022.7
20260830034517 68 0.0 1.0 0.00 0.12 0.12 86 1022.9
20260830033517 67 0.0 3.0 0.00 0.12 0.12 92 1023.0
20260830032517 66 0.0 1.0 0.00 0.12 0.12 93 1023.2
20260830031517 65 0.0 1.0 0.00 0.12 0.12 93 1023.6
20260830030517 64 0.0 2.0 0.00 0.12 0.12 93 1023.8
20260830025517 64 0.0 4.0 0.00 0.12 0.12 94 1024.0
20260830024517 64 0.0 3.0 0.00 0.12 0.12 94 1024.1
20260830023518 63 0.0 0.0 0.00 0.12 0.12 94 1024.1
20260830022519 63 0.0 0.0 0.00 0.12 0.12 94 1024.3
20260830021519 63 0.0 0.0 0.00 0.12 0.12 94 1024.4
20260830020519 63 0.0 0.0 0.00 0.12 0.12 94 1024.6
20260830015519 63 0.0 0.0 0.00 0.12 0.12 94 1024.7
20260830014519 62 0.0 0.0 0.00 0.12 0.12 94 1024.8
20260830013539 62 0.0 0.0 0.00 0.12 0.12 95 1025.2
20260830012559 61 0.0 0.0 0.00 0.12 0.12 94 1025.3
20260830011539 62 0.0 1.0 0.00 0.12 0.12 94 1025.6
20260830010600 62 0.0 0.0 0.00 0.12 0.12 95 1025.7